Location: Tel Aviv
(32.0670°N, 34.7670°E)
Time: 12:03:43
(UTC+02:00)

Vanguard 2 Rocket - All Passes

Search period start: 05 December 2023 00:00
Search period end: 15 December 2023 00:00
Orbit: 552 x 3312 km, 32.9° (Epoch: 04 December)

Date Brightness Start Highest point End Pass type
(mag) Time Alt. Az. Time Alt. Az. Time Alt. Az.
05 Dec - 10:58:20 10° S 11:09:17 30° SE 11:24:05 10° E daylight
05 Dec - 13:08:57 10° SW 13:24:39 67° SSE 13:44:44 10° ENE daylight
05 Dec - 15:24:06 10° W 15:43:24 89° N 16:02:27 10° E daylight
05 Dec - 17:42:10 10° W 18:02:52 87° SSW 18:18:14 10° ESE visible
05 Dec - 20:01:46 10° WNW 20:19:41 54° SW 20:31:07 10° SE visible
05 Dec - 22:25:22 10° W 22:32:40 16° SW 22:38:25 10° SSW visible
06 Dec - 09:59:39 10° SSE 10:07:09 18° SE 10:16:36 10° E daylight
06 Dec - 12:07:25 10° SW 12:21:00 54° SE 12:40:03 10° ENE daylight
06 Dec - 14:20:57 10° WSW 14:38:34 86° SSE 14:58:46 10° E daylight
06 Dec - 16:37:52 10° W 16:58:14 88° N 17:15:38 10° E visible
06 Dec - 18:56:42 10° WNW 19:16:30 68° SSW 19:29:55 10° SE visible
06 Dec - 21:17:51 10° W 21:30:59 28° SW 21:40:05 10° S visible
07 Dec - 11:06:40 10° SSW 11:18:05 40° SE 11:34:43 10° ENE daylight
07 Dec - 13:18:29 10° WSW 13:34:06 77° SSE 13:54:35 10° ENE daylight
07 Dec - 15:34:05 10° W 15:53:19 87° N 16:12:28 10° E daylight
07 Dec - 17:52:01 10° WNW 18:12:35 79° SSW 18:28:04 10° ESE visible
07 Dec - 20:11:50 10° WNW 20:28:44 42° SW 20:40:08 10° SSE visible
08 Dec - 10:06:51 10° S 10:15:51 26° SE 10:28:30 10° E daylight
08 Dec - 12:16:41 10° SW 12:30:13 65° SSE 12:49:58 10° ENE daylight
08 Dec - 14:30:53 10° W 14:48:23 89° N 15:08:42 10° E daylight
08 Dec - 16:47:48 10° W 17:08:05 87° SSW 17:25:35 10° ESE visible
08 Dec - 19:06:33 10° WNW 19:25:46 56° SSW 19:39:16 10° SE visible
08 Dec - 21:29:22 10° W 21:39:42 19° SW 21:47:38 10° S visible
09 Dec - 09:09:04 10° SSE 09:14:10 14° SE 09:20:22 10° E daylight
09 Dec - 11:15:33 10° SW 11:27:05 51° SE 11:44:51 10° ENE daylight
09 Dec - 13:28:16 10° WSW 13:43:46 85° SSE 14:04:26 10° E daylight
09 Dec - 15:44:04 10° W 16:03:14 88° N 16:22:26 10° E daylight
09 Dec - 18:01:52 10° WNW 18:22:05 70° SSW 18:37:40 10° SE visible
09 Dec - 20:22:18 10° W 20:37:34 32° SW 20:48:36 10° SSE visible
10 Dec - 10:15:09 10° SSW 10:24:40 36° SE 10:39:15 10° E daylight
10 Dec - 12:26:16 10° WSW 12:39:41 76° SSE 12:59:46 10° ENE daylight
10 Dec - 14:40:53 10° W 14:58:18 87° N 15:18:40 10° E daylight
10 Dec - 16:57:42 10° WNW 17:17:47 80° SSW 17:35:22 10° ESE visible
10 Dec - 19:16:35 10° WNW 19:34:48 45° SW 19:48:14 10° SSE visible
10 Dec - 21:43:33 10° WSW 21:48:24 12° SW 21:52:44 10° SW visible
11 Dec - 09:15:48 10° S 09:22:54 22° SE 09:32:52 10° E daylight
11 Dec - 11:24:52 10° SW 11:36:18 63° SSE 11:54:44 10° ENE daylight
11 Dec - 13:38:12 10° W 13:53:35 89° N 14:14:20 10° E daylight
11 Dec - 15:54:03 10° W 16:13:04 87° SSW 16:32:20 10° ESE daylight
11 Dec - 18:11:45 10° WNW 18:31:22 58° SSW 18:46:57 10° SE visible
11 Dec - 20:33:34 10° W 20:46:17 23° SW 20:56:15 10° S visible
12 Dec - 08:20:42 10° SE 08:21:34 10° SE 08:22:28 10° ESE daylight
12 Dec - 10:24:04 10° SSW 10:33:39 47° SE 10:49:26 10° ENE daylight
12 Dec - 12:36:05 10° WSW 12:49:22 85° SSE 13:09:34 10° E daylight
12 Dec - 14:50:54 10° W 15:08:12 88° N 15:28:37 10° E daylight
12 Dec - 17:07:34 10° WNW 17:27:18 71° SSW 17:44:54 10° SE visible
12 Dec - 19:27:00 10° W 19:43:39 35° SW 19:56:39 10° SSE visible
13 Dec - 09:24:00 10° SSW 09:31:44 31° SE 09:43:47 10° E daylight
13 Dec - 11:34:28 10° WSW 11:45:47 74° SSE 12:04:31 10° ENE daylight
13 Dec - 13:48:14 10° W 14:03:30 87° N 14:24:15 10° E daylight
13 Dec - 16:03:58 10° WNW 16:22:46 80° SSW 16:42:03 10° ESE daylight
13 Dec - 18:21:47 10° WNW 18:40:25 47° SW 18:55:50 10° SSE visible
13 Dec - 20:46:40 10° W 20:55:00 15° SW 21:02:13 10° SSW visible
14 Dec - 08:25:09 10° SSE 08:30:22 17° SE 08:37:21 10° E daylight
14 Dec - 10:33:24 10° SW 10:42:55 60° SSE 10:59:20 10° ENE daylight
14 Dec - 12:46:03 10° W 12:59:12 89° NNW 13:19:24 10° E daylight
14 Dec - 15:00:53 10° W 15:18:03 88° SSW 15:38:27 10° ESE daylight
14 Dec - 17:17:29 10° WNW 17:36:35 60° SSW 17:54:05 10° SE visible
14 Dec - 19:38:08 10° W 19:52:25 25° SW 20:04:18 10° S visible
